This is the latest recevied weather packets stored in our database for station/object KG5APU. If no packets are shown the sender has not sent any weather packets the latest 10 day(s).
| Time | Temp. | Humidity | Pressure | Rain* | Wind** | Luminosity | Snow |
|---|---|---|---|---|---|---|---|
| 1777662128 | 18.33° C | 59% | 1016.2 hPa | 0 mm | - | 307 W/m² | - |
| 1777661526 | 18.33° C | 57% | 1016.3 hPa | 0 mm | - | 347 W/m² | - |
| 1777660922 | 18.33° C | 56% | 1016.4 hPa | 0 mm | - | 417 W/m² | - |
| 1777660322 | 18.89° C | 58% | 1016.9 hPa | 0 mm | - | 509 W/m² | - |
| 1777659721 | 19.44° C | 58% | 1016.9 hPa | 0 mm | - | 876 W/m² | - |
| 1777659121 | 18.89° C | 56% | 1017.2 hPa | 0 mm | - | 880 W/m² | - |
| 1777658520 | 18.89° C | 61% | 1017.5 hPa | 0 mm | - | 863 W/m² | - |
| 1777657920 | 18.89° C | 59% | 1017.5 hPa | 0 mm | - | 589 W/m² | - |
| 1777657320 | 18.33° C | 61% | 1017.8 hPa | 0 mm | - | 989 W/m² | - |
| 1777656721 | 18.33° C | 63% | 1018 hPa | 0 mm | - | 1071 W/m² | - |
| 1777656117 | 18.33° C | 68% | 1018 hPa | 0 mm | - | 1000 W/m² | - |
| 1777655516 | 17.78° C | 68% | 1017.9 hPa | 0 mm | - | 469 W/m² | - |
| 1777654916 | 17.78° C | 67% | 1017.9 hPa | 0 mm | - | 506 W/m² | - |
| 1777654317 | 16.67° C | 68% | 1018.4 hPa | 0 mm | - | 827 W/m² | - |
| 1777653717 | 16.67° C | 74% | 1018.1 hPa | 0 mm | - | 665 W/m² | - |
| 1777653116 | 16.11° C | 74% | 1018.2 hPa | 0 mm | - | 369 W/m² | - |
| 1777652515 | 15.56° C | 76% | 1018.4 hPa | 0 mm | - | 365 W/m² | - |
| 1777651915 | 15.56° C | 77% | 1018.5 hPa | 0 mm | - | 354 W/m² | - |
| 1777651314 | 15° C | 77% | 1018.6 hPa | 0 mm | - | 342 W/m² | - |
| 1777650714 | 14.44° C | 79% | 1018.7 hPa | 0 mm | - | 258 W/m² | - |
| 1777650114 | 13.89° C | 78% | 1018.7 hPa | 0 mm | - | 156 W/m² | - |
| 1777649508 | 13.89° C | 77% | 1018.1 hPa | 0 mm | - | 108 W/m² | - |
| 1777648907 | 14.44° C | 78% | 1018.4 hPa | 0 mm | - | 88 W/m² | - |
| 1777648307 | 13.89° C | 76% | 1018.5 hPa | 0 mm | - | 100 W/m² | - |
| 1777647705 | 13.89° C | 75% | 1018.4 hPa | 0 mm | - | 101 W/m² | - |
* Rain latest hour (hover to see other rain measurements)
** Current wind speed in m/s (hover to see current wind gust speed)